This demonstration page uses our WeatherBlox Daily Observations layout. Learn more.

Hourly Observations for January 29, 2019

Temp ( °F °C ) Dew Point ( °F °C ) Humidity (%) Winds ( mph kmh ) Pressure ( in mb ) Visibility ( mi km ) Precip ( " mm )
12:15 am 00:15 Partly Cloudy 22 -5.6 12 -11 66 66 W 9 15 30.27 1025 10 16.09344 0 0
12:35 am 00:35 Partly Cloudy 23 -5.1 13 -10.5 66 66 W 10 17 30.27 1025 10 16.09344 0 0
12:55 am 00:55 Clear 24 -4.7 13 -10.5 64 64 W 13 20 30.27 1025 10 16.09344 0 0
1:15 am 01:15 Clear 24 -4.6 14 -10.2 65 65 W 14 22 30.27 1025 10 16.09344 0 0
1:35 am 01:35 Clear 24 -4.6 14 -10.2 65 65 W 14 22 30.27 1025 10 16.09344 0 0
1:55 am 01:55 Clear 24 -4.6 14 -10.2 65 65 W 12 19 30.27 1025 10 16.09344 0 0
2:15 am 02:15 Clear 23 -4.8 14 -10 67 67 NNW 13 20 30.27 1025 10 16.09344 0 0
2:35 am 02:35 Clear 22 -5.6 14 -10 71 71 NNW 12 19 30.3 1026 10 16.09344 0 0
2:55 am 02:55 Partly Cloudy 20 -6.5 14 -10.2 75 75 NW 9 15 30.3 1026 10 16.09344 0 0
3:15 am 03:15 Mostly Cloudy 21 -6.2 14 -9.8 76 76 NW 9 15 30.3 1026 10 16.09344 0 0
3:35 am 03:35 Mostly Cloudy 20 -6.7 14 -10.1 77 77 WNW 6 9 30.3 1026 10 16.09344 0 0
3:55 am 03:55 Mostly Cloudy 22 -5.5 16 -8.7 78 78 WNW 9 15 30.3 1026 10 16.09344 0 0
4:15 am 04:15 Cloudy 22 -5.4 17 -8.6 78 78 WNW 8 13 30.27 1025 10 16.09344 0 0
4:35 am 04:35 Cloudy 22 -5.5 17 -8.5 80 80 WNW 6 9 30.27 1025 10 16.09344 0 0
4:55 am 04:55 Mostly Cloudy 20 -6.5 15 -9.5 80 80 W 8 13 30.27 1025 10 16.09344 0 0
5:15 am 05:15 Partly Cloudy 21 -6.1 15 -9.5 77 77 W 9 15 30.27 1025 10 16.09344 0 0
5:35 am 05:35 Partly Cloudy 21 -6.1 15 -9.5 77 77 W 12 19 30.27 1025 10 16.09344 0 0
5:55 am 05:55 Mostly Cloudy 23 -5 16 -9 74 74 W 10 17 30.27 1025 10 16.09344 0 0
6:15 am 06:15 Cloudy 22 -5.3 16 -9 76 76 W 10 17 30.27 1025 10 16.09344 0 0
6:35 am 06:35 Cloudy 23 -5 15 -9.2 73 73 W 13 20 30.27 1025 10 16.09344 0 0
6:55 am 06:55 Cloudy 24 -4.7 15 -9.2 71 71 W 12 19 30.27 1025 10 16.09344 0 0
7:15 am 07:15 Cloudy 24 -4.7 15 -9.3 71 71 W 12 19 30.27 1025 10 16.09344 0 0
7:35 am 07:35 Cloudy 23 -4.8 15 -9.5 70 70 W 10 17 30.24 1024 10 16.09344 0 0
7:55 am 07:55 Cloudy 22 -5.5 15 -9.7 73 73 W 9 15 30.24 1024 10 16.09344 0 0
8:15 am 08:15 Mostly Cloudy 22 -5.5 15 -9.6 73 73 W 9 15 30.24 1024 10 16.09344 0 0
8:35 am 08:35 Mostly Cloudy 23 -4.9 15 -9.5 70 70 W 12 19 30.27 1025 10 16.09344 0 0
8:55 am 08:55 Cloudy 24 -4.7 16 -9.1 72 72 W 9 15 30.27 1025 10 16.09344 0 0
9:15 am 09:15 Cloudy 22 -5.5 13 -10.3 69 69 NNE 13 20 30.27 1025 10 16.09344 0 0
9:35 am 09:35 Mostly Cloudy 20 -6.7 13 -10.8 73 73 NE 13 20 30.27 1025 10 16.09344 0 0
9:55 am 09:55 Partly Cloudy 20 -6.5 12 -10.9 71 71 NE 10 17 30.27 1025 10 16.09344 0 0
10:15 am 10:15 Partly Cloudy 21 -6.2 11 -11.4 67 67 NNE 14 22 30.3 1026 10 16.09344 0 0
10:35 am 10:35 Cloudy 21 -6.2 11 -11.5 66 66 NNE 13 20 30.3 1026 10 16.09344 0 0
10:55 am 10:55 Cloudy 21 -6.2 11 -11.6 66 66 NNE 10 17 30.3 1026 10 16.09344 0 0
11:15 am 11:15 Cloudy with Light Snow 20 -6.6 11 -11.9 66 66 NNE 13 20 30.33 1027 10 16.09344 0 0
11:35 am 11:35 Cloudy with Light Snow 20 -6.7 11 -11.6 68 68 N 13 20 30.36 1028 7 11.265408 0 0
11:55 am 11:55 Cloudy with Light Snow 20 -6.6 11 -11.4 69 69 N 8 13 30.3 1026 7 11.265408 0 0
12:15 pm 12:15 Cloudy with Light Snow 22 -5.7 11 -11.4 65 65 N 8 13 30.3 1026 10 16.09344 0 0
12:35 pm 12:35 Cloudy 22 -5.5 11 -11.8 62 62 N 8 13 30.27 1025 10 16.09344 0 0
12:55 pm 12:55 Cloudy 24 -4.6 10 -12 57 57 NNW 13 20 30.27 1025 10 16.09344 0 0
1:15 pm 13:15 Cloudy 22 -5.5 9 -13 56 56 NNW 17 28 30.27 1025 10 16.09344 0 0
1:35 pm 13:35 Cloudy 22 -5.5 8 -13.1 55 55 NNW 17 28 30.27 1025 10 16.09344 0 0
1:55 pm 13:55 Cloudy 22 -5.6 7 -14 52 52 NNW 21 33 30.27 1025 10 16.09344 0 0
2:15 pm 14:15 Cloudy 22 -5.6 7 -14 52 52 NNW 18 30 30.27 1025 10 16.09344 0 0
2:35 pm 14:35 Cloudy 21 -6.2 6 -14.3 53 53 N 17 28 30.27 1025 10 16.09344 0 0
2:55 pm 14:55 Cloudy 22 -5.5 7 -14.1 51 51 N 16 26 30.27 1025 10 16.09344 0 0
3:15 pm 15:15 Cloudy 23 -5.1 7 -14.1 50 50 NNW 18 30 30.27 1025 10 16.09344 0 0
3:35 pm 15:35 Partly Cloudy 22 -5.5 7 -13.9 52 52 NNW 16 26 30.24 1024 10 16.09344 0 0
3:55 pm 15:55 Partly Cloudy 21 -5.9 6 -14.3 52 52 NNW 14 22 30.24 1024 10 16.09344 0 0
4:15 pm 16:15 Mostly Cloudy 22 -5.8 4 -15.5 47 47 N 12 19 30.27 1025 10 16.09344 0 0
4:35 pm 16:35 Cloudy 20 -6.5 4 -15.6 49 49 N 13 20 30.27 1025 10 16.09344 0 0
4:55 pm 16:55 Cloudy 20 -6.8 4 -15.6 50 50 N 10 17 30.27 1025 10 16.09344 0 0
5:15 pm 17:15 Cloudy 19 -7 4 -15.5 51 51 N 12 19 30.27 1025 10 16.09344 0 0
5:35 pm 17:35 Partly Cloudy 18 -7.7 4 -15.7 53 53 NNE 10 17 30.3 1026 10 16.09344 0 0
5:55 pm 17:55 Mostly Cloudy 18 -8 3 -16.1 53 53 N 12 19 30.3 1026 10 16.09344 0 0
6:15 pm 18:15 Mostly Cloudy 16 -8.8 1 -17.1 51 51 NNE 12 19 30.33 1027 10 16.09344 0 0
6:35 pm 18:35 Cloudy 16 -9 1 -17.4 51 51 N 12 19 30.33 1027 10 16.09344 0 0
6:55 pm 18:55 Cloudy 16 -9 1 -17.5 51 51 N 9 15 30.33 1027 10 16.09344 0 0
7:15 pm 19:15 Cloudy 16 -9 0 -17.7 50 50 NNW 14 22 30.33 1027 10 16.09344 0 0
7:35 pm 19:35 Cloudy 16 -9 -1 -18.1 48 48 N 8 13 30.36 1028 10 16.09344 0 0
7:55 pm 19:55 Cloudy 15 -9.5 -1 -18.1 50 50 NNW 9 15 30.39 1029 10 16.09344 0 0
8:15 pm 20:15 Mostly Cloudy 13 -10.4 0 -17.8 55 55 NNW 16 26 30.39 1029 10 16.09344 0 0
8:35 pm 20:35 Partly Cloudy 13 -10.5 -1 -18.5 52 52 NNW 8 13 30.42 1030 10 16.09344 0 0
8:55 pm 20:55 Clear 13 -10.8 -2 -19.1 51 51 NNW 12 19 30.42 1030 10 16.09344 0 0
9:15 pm 21:15 Clear 12 -11 -4 -20 48 48 NNW 13 20 30.42 1030 10 16.09344 0 0
9:35 pm 21:35 Clear 12 -11.3 -5 -20.4 47 47 NNW 12 19 30.42 1030 10 16.09344 0 0
9:55 pm 21:55 Clear 11 -11.6 -5 -20.7 47 47 NNW 12 19 30.42 1030 10 16.09344 0 0
10:15 pm 22:15 Clear 10 -12.3 -4 -20 53 53 NNE 10 17 30.45 1031 10 16.09344 0 0
10:35 pm 22:35 Clear 8 -13.3 -4 -19.9 58 58 N 8 13 30.45 1031 10 16.09344 0 0
10:55 pm 22:55 Clear 7 -13.9 -2 -19.1 65 65 N 6 9 30.48 1032 10 16.09344 0 0
11:15 pm 23:15 Clear 7 -13.7 -3 -19.7 61 61 N 8 13 30.48 1032 10 16.09344 0 0
11:35 pm 23:35 Clear 7 -14.1 -3 -19.5 64 64 NNW 7 11 30.48 1032 10 16.09344 0 0
11:55 pm 23:55 Clear 6 -14.5 -3 -19.5 66 66 N 5 7 30.5 1033 10 16.09344 0 0

Powered by AerisWeather